Location: Newark
(44.3248°N, 23.7839°E)
Time: 11:05:37
(UTC+00:00)

X-37B - Pass Details

Date: 17 June 2023
Orbit: 277 x 277 km, 45.0° (Epoch: 01 November)

Event Time Altitude Azimuth Distance (km) Brightness Sun altitude
Exits shadow 00:46:35 35° 282° (WNW) 475 0.8 -15.0°
Maximum altitude 00:47:26 71° 357° (N) 296 0.1 -14.9°
Drops below altitude 10° 00:49:53 10° 83° (E) 1,102 3.5 -14.7°
Sets 00:51:49 0° 86° (E) 1,915 4.7 -14.5°
